NJE4SG EDFE-EHRD

Flight info

Callsign NJE4SG
Flight time 0h 53m
Altitude 34000
Route 495211N0083603E DCT RID DCT DIK DCT LIE DCT BUN DCT DOFMU
Aircraft C25C/M-SDE2E3FGHRWXY/LB1

Departure

Time 2026-05-04 08:24
Airport Frankfurt-Egelsbach Airport (EDFE)

Arrival

Time 2026-05-04 09:17
Airport Rotterdam The Hague Airport (EHRD)
Time Latitude Longitude Altitude Speed Heading
2026-05-04 08:17 49.96199 8.64226 389 ft 0 kts 83°
2026-05-04 08:22 49.96184 8.64267 389 ft 10 kts 136°
2026-05-04 08:22 49.96178 8.64408 389 ft 20 kts 85°
2026-05-04 08:24 49.96127 8.65057 387 ft 0 kts 266°
2026-05-04 08:24 49.96120 8.64911 386 ft 60 kts 265°
2026-05-04 08:24 49.96058 8.63663 583 ft 151 kts 265°
2026-05-04 08:24 49.95998 8.62039 1182 ft 147 kts 259°
2026-05-04 08:25 49.95279 8.60969 1348 ft 164 kts 190°
2026-05-04 08:25 49.94114 8.60951 1412 ft 174 kts 181°
2026-05-04 08:25 49.92864 8.60872 1345 ft 185 kts 186°
2026-05-04 08:25 49.91758 8.60634 1443 ft 185 kts 189°
2026-05-04 08:26 49.90479 8.60424 1497 ft 188 kts 187°
2026-05-04 08:27 49.80305 8.55295 2370 ft 227 kts 199°
2026-05-04 08:28 49.78791 8.54511 2464 ft 232 kts 201°
2026-05-04 08:28 49.77251 8.53639 2490 ft 238 kts 201°
2026-05-04 08:28 49.75670 8.52761 2500 ft 244 kts 204°
2026-05-04 08:28 49.74428 8.51059 2623 ft 243 kts 241°
2026-05-04 08:29 49.73863 8.48661 3014 ft 234 kts 261°
2026-05-04 08:29 49.73980 8.46180 3362 ft 230 kts 275°
2026-05-04 08:29 49.74147 8.43720 3482 ft 233 kts 273°
2026-05-04 08:31 49.75302 8.24989 5503 ft 235 kts 274°
2026-05-04 08:33 49.76311 8.07939 8450 ft 262 kts 273°
2026-05-04 08:33 49.76487 8.05107 10232 ft 268 kts 273°
2026-05-04 08:35 49.77749 7.83159 20304 ft 315 kts 271°
2026-05-04 08:35 49.77940 7.79757 21508 ft 320 kts 271°
2026-05-04 08:35 49.78133 7.76299 22680 ft 326 kts 271°
2026-05-04 08:35 49.78331 7.72779 23771 ft 331 kts 271°
2026-05-04 08:37 49.79538 7.50792 29265 ft 348 kts 270°
2026-05-04 08:37 49.79737 7.47061 30010 ft 354 kts 270°
2026-05-04 08:37 49.79939 7.43144 30017 ft 374 kts 270°
2026-05-04 08:38 49.80155 7.39088 30025 ft 392 kts 270°
2026-05-04 08:38 49.80384 7.34796 30026 ft 406 kts 270°
2026-05-04 08:38 49.80617 7.30371 30027 ft 418 kts 270°
2026-05-04 08:40 49.82180 6.99669 30008 ft 381 kts 270°
2026-05-04 08:40 49.82374 6.95649 29999 ft 377 kts 269°
2026-05-04 08:41 49.82907 6.87592 29998 ft 384 kts 276°
2026-05-04 08:41 49.83595 6.83513 29997 ft 398 kts 283°
2026-05-04 08:41 49.84630 6.79462 30001 ft 411 kts 289°
2026-05-04 08:41 49.86022 6.75536 30006 ft 422 kts 296°
2026-05-04 08:42 49.87774 6.71813 30015 ft 433 kts 303°
2026-05-04 08:42 49.92131 6.65115 30017 ft 445 kts 311°
2026-05-04 08:43 49.96672 6.58482 30007 ft 450 kts 311°
2026-05-04 08:43 50.01260 6.51786 30016 ft 454 kts 311°
2026-05-04 08:44 50.05826 6.45087 30019 ft 454 kts 310°
2026-05-04 08:46 50.24047 6.18187 30013 ft 447 kts 310°
2026-05-04 08:46 50.28528 6.11528 30004 ft 447 kts 310°
2026-05-04 08:47 50.33027 6.04823 30001 ft 446 kts 310°
2026-05-04 08:47 50.37520 5.98107 29996 ft 446 kts 310°
2026-05-04 08:48 50.41239 5.92537 30004 ft 444 kts 310°
2026-05-04 08:48 50.45705 5.85827 29997 ft 444 kts 310°
2026-05-04 08:49 50.50163 5.79113 29999 ft 443 kts 309°
2026-05-04 08:50 50.65484 5.55894 30001 ft 442 kts 309°
2026-05-04 08:51 50.69909 5.49145 30005 ft 442 kts 309°
2026-05-04 08:51 50.74330 5.42381 30002 ft 442 kts 309°
2026-05-04 08:52 50.76544 5.38990 29703 ft 448 kts 309°
2026-05-04 08:52 50.78797 5.35520 29031 ft 448 kts 309°
2026-05-04 08:52 50.80963 5.32227 28380 ft 428 kts 309°
2026-05-04 08:52 50.83079 5.28969 27727 ft 422 kts 309°
2026-05-04 08:53 50.85167 5.25733 27101 ft 419 kts 309°
2026-05-04 08:54 50.99669 5.03273 22800 ft 417 kts 310°
2026-05-04 08:55 51.01741 5.00042 22106 ft 417 kts 311°
2026-05-04 08:55 51.03811 4.96819 21434 ft 416 kts 311°
2026-05-04 08:55 51.05865 4.93611 20771 ft 411 kts 312°
2026-05-04 08:55 51.07888 4.90452 20123 ft 404 kts 312°
2026-05-04 08:57 51.23359 4.73320 15641 ft 376 kts 327°
2026-05-04 09:01 51.52412 4.45457 7696 ft 290 kts 328°
2026-05-04 09:01 51.54047 4.43884 7434 ft 260 kts 328°
2026-05-04 09:01 51.55525 4.42447 7169 ft 239 kts 327°
2026-05-04 09:01 51.56901 4.41118 6898 ft 223 kts 328°
2026-05-04 09:02 51.58198 4.39856 6638 ft 212 kts 328°
2026-05-04 09:02 51.59438 4.38659 6372 ft 204 kts 328°
2026-05-04 09:02 51.60632 4.37498 6096 ft 198 kts 328°
2026-05-04 09:02 51.61792 4.36371 5819 ft 192 kts 328°
2026-05-04 09:03 51.62930 4.35270 5550 ft 189 kts 328°
2026-05-04 09:03 51.64044 4.34182 5284 ft 186 kts 328°
2026-05-04 09:03 51.65130 4.33129 5026 ft 184 kts 328°
2026-05-04 09:03 51.66220 4.32069 4765 ft 182 kts 328°
2026-05-04 09:04 51.67313 4.31001 4499 ft 181 kts 328°
2026-05-04 09:04 51.68376 4.29971 4235 ft 180 kts 328°
2026-05-04 09:04 51.69440 4.28931 4044 ft 175 kts 328°
2026-05-04 09:04 51.70471 4.27925 3987 ft 172 kts 328°
2026-05-04 09:05 51.71498 4.26929 3963 ft 172 kts 328°
2026-05-04 09:05 51.72519 4.25944 3961 ft 170 kts 333°
2026-05-04 09:05 51.73672 4.25603 3954 ft 170 kts
2026-05-04 09:05 51.74794 4.26097 3953 ft 168 kts 30°
2026-05-04 09:06 51.75658 4.27345 3957 ft 167 kts 52°
2026-05-04 09:07 51.81157 4.38277 3224 ft 189 kts 51°
2026-05-04 09:08 51.81990 4.39930 3098 ft 190 kts 51°
2026-05-04 09:08 51.82825 4.41589 3022 ft 189 kts 51°
2026-05-04 09:08 51.83645 4.43226 2997 ft 185 kts 51°
2026-05-04 09:08 51.84444 4.44817 3009 ft 181 kts 51°
2026-05-04 09:09 51.85229 4.46381 2996 ft 178 kts 51°
2026-05-04 09:09 51.86005 4.47935 3000 ft 176 kts 52°
2026-05-04 09:09 51.86772 4.49459 2991 ft 174 kts 51°
2026-05-04 09:09 51.87529 4.50976 2996 ft 172 kts 51°
2026-05-04 09:10 51.88266 4.52448 2997 ft 170 kts 52°
2026-05-04 09:10 51.89007 4.53927 2991 ft 169 kts 51°
2026-05-04 09:10 51.89746 4.55413 2997 ft 170 kts 51°
2026-05-04 09:10 51.90503 4.56923 2998 ft 176 kts 52°
2026-05-04 09:11 51.91288 4.58496 2978 ft 182 kts 51°
2026-05-04 09:11 51.92104 4.60136 2851 ft 192 kts 51°
2026-05-04 09:11 51.92967 4.61860 2761 ft 200 kts 52°
2026-05-04 09:11 51.93839 4.63620 2746 ft 200 kts 51°
2026-05-04 09:12 51.94724 4.65338 2736 ft 196 kts 45°
2026-05-04 09:12 51.95915 4.66325 2620 ft 193 kts 12°
2026-05-04 09:14 52.01377 4.59001 1790 ft 122 kts 262°
2026-05-04 09:14 52.01086 4.57795 1792 ft 109 kts 233°
2026-05-04 09:14 52.00711 4.56693 1669 ft 115 kts 236°
2026-05-04 09:14 52.00275 4.55579 1509 ft 118 kts 238°
2026-05-04 09:15 51.99844 4.54464 1351 ft 114 kts 236°
2026-05-04 09:15 51.99418 4.53392 1191 ft 113 kts 235°
2026-05-04 09:15 51.98997 4.52315 1038 ft 113 kts 236°
2026-05-04 09:15 51.98569 4.51252 891 ft 112 kts 236°
2026-05-04 09:17 51.95602 4.43800 -6 ft 36 kts 237°
2026-05-04 09:18 51.95483 4.43605 -7 ft 19 kts 217°
2026-05-04 09:18 51.95380 4.43488 -6 ft 13 kts 214°
2026-05-04 09:18 51.95322 4.43423 -6 ft 11 kts 214°
2026-05-04 09:18 51.95252 4.43426 -5 ft 11 kts 147°
2026-05-04 09:19 51.95180 4.43499 -5 ft 13 kts 147°
2026-05-04 09:19 51.95101 4.43583 -5 ft 14 kts 147°
2026-05-04 09:19 51.95026 4.43661 -5 ft 10 kts 148°
2026-05-04 09:19 51.94996 4.43723 -5 ft 7 kts 78°
2026-05-04 09:20 51.95022 4.43792 -5 ft 8 kts 57°
2026-05-04 09:20 51.95057 4.43877 -5 ft 10 kts 57°
2026-05-04 09:20 51.95094 4.43971 -5 ft 8 kts 57°
2026-05-04 09:20 51.95131 4.44005 -5 ft 6 kts 20°
2026-05-04 09:21 51.95137 4.44024 -5 ft 0 kts 136°
2026-05-04 09:21 51.95132 4.44021 -5 ft 2 kts 238°
2026-05-04 09:21 51.95131 4.44020 -5 ft 0 kts 237°